Probability
35 26 16 10 16 13 16 16 13 16 13 10 16 10 6 10 10 6 6 0 3 0 0 0 0 0 0 0 0 0 0 0 0 0 0 3 0 3 3 0 0 0 0
19 13 6 3 0 3 0 3 0 3 3 3 3 0 3 6 6 3 0 0 0 0 0 0 0 0 0 0 0 0 0 0 0 0 0 0 0 0 0 0 0 0 0
3 0 0 3 0 0 0 0 0 0 0 0 0 0 0 0 0 0 0 0 0 0 0 0 0 0 0 0 0 0 0 0 0 0 0 0 0 0 0 0 0 0 0
0 3 0 0 0 0 0 0 0 0 0 0 0 0 0 0 0 0 0 0 0 0 0 0 0 0 0 0 0 0 0 0 0 0 0 0 0 0 0 0 0 0 0
3 3 3 0 0 0 0 0 0 0 0 0 0 0 0 0 0 0 0 0 0 0 0 0 0 0 0 0 0 0 0 0 0 0 0 0 0 0 0 0 0 0 0
3 0 0 0 0 0 0 0 0 0 0 0 0 0 0 0 0 0 0 0 0 0 0 0 0 0 0 0 0 0 0 0 0 0 0 0 0 0 0 0 0 0 0
6 3 0 0 0 0 0 0 0 0 0 0 0 0 0 0 0 0 0 0 0 0 0 0 0 0 0 0 0 0 0 0 0 0 0 0 0 0 0 0 0 0 0
13 3 0 0 0 0 0 0 0 0 0 0 0 0 0 0 0 0 0 0 0 0 0 0 0 0 0 0 0 0 0 0 0 0 0 0 0 0 0 0 0 0 0
0 3 0 0 0 0 0 0 0 0 0 0 0 0 0 0 0 0 0 0 0 0 0 0 0 0 0 0 0 0 0 0 0 0 0 0 0 0 0 0 0 0 0
0 0 3 3 0 0 0 3 3 0 0 0 0 0 0 0 0 0 0 0 0 0 0 0 0 0 0 0 0 0 0 0 0 0 0 0 0 0 0 0 0 0 0
3 10 10 3 0 3 10 6 3 0 0 0 0 0 0 0 0 0 0 0 0 0 0 0 0 0 0 0 0 0 0 0 0 0 0 0 0 0 0 0 0 0 0
6 6 10 6 0 0 6 6 6 0 0 0 0 0 0 0 0 0 0 0 0 0 0 0 0 0 0 0 0 0 0 0 0 0 0 0 0 0 0 0 0 0 0
6 10 10 6 0 3 10 10 0 0 0 0 0 0 0 0 0 0 0 0 0 0 0 0 0 0 0 0 0 0 0 0 0 0 0 0 0 0 0 0 0 0 0
23 26 19 10 10 6 16 13 3 0 0 0 0 0 0 0 0 0 0 0 0 0 0 0 0 0 0 0 0 0 0 0 0 0 0 0 0 0 0 0 0 0 0
23 19 13 10 0 10 0 0 0 3 3 0 0 0 0 0 0 0 0 0 0 0 0 0 0 0 0 0 0 0 0 0 0 0 0 0 0 0 0 0 0 0 0
6 6 0 3 0 0 3 0 0 0 0 0 0 0 0 0 0 0 0 0 0 0 0 0 0 0 0 0 0 0 0 0 0 0 0 0 0 0 0 0 0 0 0
3 10 0 0 0 0 0 0 0 0 0 0 0 0 0 0 0 0 0 0 0 0 0 0 0 0 0 0 0 0 0 0 0 0 0 0 0 0 0 0 0 0 0
0 0 0 0 0 0 0 0 0 0 0 0 0 0 0 0 0 0 0 0 0 0 0 0 0 0 0 0 0 0 0 0 0 0 0 0 0 0 0 0 0 0 0
0 0 0 0 0 0 0 0 0 0 0 0 0 0 0 0 0 0 0 0 0 0 0 0 0 0 0 0 0 0 0 0 0 0 0 0 0 0 0 0 0 0 0
0 0 0 0 0 0 0 0 0 0 0 0 0 0 0 0 0 0 0 0 0 0 0 0 0 0 0 0 0 0 0 0 0 0 0 0 0 0 0 0 0 0 0
0 0 0 0 0 0 0 0 0 0 0 0 0 0 0 0 0 0 0 0 0 0 0 0 0 0 0 0 0 0 0 0 0 0 0 0 0 0 0 0 0 0 0
0 0 0 0 0 0 0 0 0 0 0 0 0 0 0 0 0 0 0 0 0 0 0 0 0 0 0 0 0 0 0 0 0 0 0 0 0 0 0 0 0 0 0
0 0 0 0 0 0 0 0 0 0 0 0 0 0 0 0 0 0 0 0 0 0 0 0 0 0 0 0 0 0 0 0 0 0 0 0 0 0 0 0 0 0 0
0 0 0 0 0 0 0 0 0 0 0 0 0 0 0 0 0 0 0 0 0 0 0 0 0 0 0 0 0 0 0 0 0 0 0 0 0 0 0 0 0 0 0
0 0 0 0 0 0 0 0 0 0 0 0 0 0 0 0 0 0 0 0 0 0 0 0 0 0 0 0 0 0 0 0 0 0 0 0 0 0 0 0 0 0 0
0 0 0 0 0 0 0 0 0 0 0 0 0 0 0 0 0 0 0 0 0 0 0 0 0 0 0 0 0 0 0 0 0 0 0 0 0 0 0 0 0 0 0
Height
5769 5766 5762 5759 5754 5750 5745 5740 5735 5731 5727 5725 5726 5727 5730 5733 5735 5739 5741 5744 5745 5746 5747 5748 5749 5750 5752 5755 5757 5758 5760 5761 5762 5762 5763 5763 5763 5762 5762 5762 5762 5761 5761
5758 5755 5751 5747 5743 5738 5733 5728 5723 5717 5714 5712 5714 5716 5719 5722 5725 5729 5732 5735 5737 5738 5739 5741 5742 5743 5745 5748 5750 5751 5753 5754 5754 5754 5754 5754 5754 5754 5753 5753 5753 5752 5752
5747 5744 5741 5737 5733 5728 5723 5717 5712 5707 5704 5703 5704 5707 5710 5713 5717 5721 5724 5727 5729 5731 5732 5734 5735 5737 5739 5741 5743 5744 5745 5746 5746 5746 5746 5746 5745 5745 5745 5744 5743 5742 5742
5738 5735 5732 5729 5725 5720 5715 5710 5705 5701 5697 5696 5698 5700 5703 5707 5710 5714 5717 5719 5722 5724 5726 5728 5730 5732 5734 5735 5736 5737 5738 5738 5738 5738 5738 5737 5736 5736 5735 5734 5734 5732 5731
5729 5727 5724 5721 5718 5714 5709 5705 5700 5696 5694 5692 5694 5696 5698 5701 5704 5707 5710 5713 5715 5718 5720 5722 5724 5726 5727 5728 5729 5730 5730 5730 5730 5730 5729 5728 5727 5726 5725 5724 5723 5722 5721
5722 5720 5718 5715 5712 5709 5706 5702 5699 5696 5693 5692 5693 5694 5696 5698 5700 5703 5706 5708 5710 5713 5715 5717 5719 5720 5721 5722 5722 5722 5722 5722 5721 5721 5720 5719 5718 5717 5715 5714 5713 5712 5711
5716 5714 5712 5710 5708 5705 5703 5700 5697 5695 5693 5693 5693 5694 5695 5696 5698 5700 5702 5704 5706 5708 5710 5712 5713 5714 5714 5715 5715 5715 5715 5714 5713 5712 5711 5710 5708 5707 5705 5704 5702 5701 5700
5710 5708 5707 5705 5703 5701 5699 5698 5696 5694 5693 5692 5692 5693 5693 5694 5695 5697 5698 5700 5702 5704 5705 5706 5707 5708 5709 5709 5709 5709 5708 5707 5706 5705 5703 5701 5699 5698 5696 5694 5693 5691 5690
5704 5703 5701 5700 5699 5697 5696 5695 5693 5692 5691 5691 5691 5691 5691 5692 5693 5694 5695 5697 5698 5700 5701 5702 5703 5704 5704 5704 5704 5703 5702 5701 5699 5697 5695 5693 5691 5689 5687 5685 5683 5682 5681
5698 5697 5696 5695 5694 5693 5692 5691 5690 5690 5689 5688 5688 5689 5689 5690 5691 5692 5693 5694 5696 5697 5698 5698 5699 5699 5699 5699 5699 5698 5697 5695 5693 5691 5689 5686 5684 5681 5678 5676 5674 5672 5671
5691 5691 5690 5690 5689 5688 5688 5687 5687 5686 5686 5686 5686 5686 5687 5688 5689 5690 5691 5692 5693 5695 5695 5695 5695 5695 5695 5695 5694 5693 5691 5689 5687 5685 5682 5679 5676 5673 5670 5667 5664 5663 5661
5684 5684 5684 5684 5684 5684 5683 5683 5683 5683 5683 5683 5683 5684 5685 5686 5687 5688 5689 5690 5691 5692 5692 5692 5692 5692 5692 5691 5690 5688 5686 5684 5681 5678 5675 5671 5668 5664 5661 5658 5656 5654 5652
5677 5677 5678 5678 5678 5678 5679 5679 5679 5679 5680 5680 5681 5682 5683 5684 5685 5686 5687 5688 5688 5689 5690 5690 5689 5689 5688 5687 5686 5684 5681 5678 5675 5671 5667 5664 5660 5656 5653 5650 5648 5645 5644
5668 5670 5671 5672 5672 5673 5674 5674 5675 5676 5676 5678 5679 5680 5681 5682 5683 5684 5684 5685 5686 5686 5686 5686 5686 5685 5685 5683 5681 5679 5676 5673 5669 5665 5661 5657 5653 5649 5646 5643 5640 5638 5637
5658 5661 5663 5664 5666 5667 5668 5669 5671 5672 5673 5674 5676 5677 5678 5679 5680 5681 5682 5682 5683 5683 5683 5683 5682 5682 5681 5680 5678 5675 5672 5669 5665 5661 5656 5652 5647 5643 5640 5637 5634 5632 5630
5647 5651 5654 5657 5659 5661 5662 5664 5666 5667 5669 5671 5672 5674 5675 5676 5677 5678 5678 5679 5679 5679 5679 5679 5679 5679 5678 5676 5674 5672 5669 5665 5661 5657 5653 5648 5643 5639 5635 5632 5629 5627 5624
5635 5640 5644 5648 5651 5653 5656 5658 5660 5662 5664 5666 5668 5670 5671 5672 5673 5674 5674 5675 5675 5675 5675 5675 5675 5675 5674 5673 5670 5668 5665 5662 5658 5654 5649 5644 5640 5635 5631 5628 5625 5622 5619
5622 5628 5633 5638 5642 5646 5649 5652 5654 5657 5659 5661 5663 5665 5666 5667 5668 5669 5669 5670 5670 5671 5671 5671 5671 5671 5670 5669 5667 5664 5662 5658 5655 5651 5646 5641 5637 5632 5628 5624 5620 5617 5614
5610 5616 5623 5628 5633 5638 5641 5645 5648 5651 5653 5656 5658 5659 5661 5662 5662 5663 5664 5665 5665 5666 5667 5667 5667 5667 5666 5665 5663 5661 5658 5655 5652 5648 5644 5639 5634 5630 5625 5620 5616 5612 5609
5598 5605 5611 5618 5624 5628 5633 5637 5641 5644 5647 5650 5652 5653 5655 5656 5657 5658 5658 5659 5660 5661 5662 5663 5663 5663 5662 5661 5659 5657 5655 5652 5649 5645 5641 5637 5632 5627 5622 5617 5612 5608 5604
5586 5593 5600 5607 5614 5620 5625 5630 5634 5637 5640 5643 5646 5647 5648 5650 5651 5652 5653 5654 5655 5656 5657 5658 5658 5658 5658 5657 5655 5654 5652 5649 5646 5643 5639 5634 5629 5624 5619 5613 5608 5603 5598
5575 5583 5590 5597 5604 5611 5617 5622 5626 5630 5633 5636 5639 5641 5642 5644 5645 5646 5647 5648 5650 5651 5652 5652 5653 5653 5653 5652 5651 5650 5648 5646 5643 5639 5635 5631 5626 5621 5615 5610 5604 5599 5593
5565 5574 5581 5588 5595 5602 5608 5614 5618 5623 5626 5629 5632 5635 5635 5637 5639 5640 5642 5643 5644 5645 5646 5647 5647 5648 5648 5647 5646 5645 5643 5641 5639 5636 5631 5627 5622 5617 5611 5606 5600 5594 5589
5557 5566 5573 5580 5587 5594 5600 5606 5611 5615 5619 5622 5625 5628 5629 5630 5633 5634 5636 5637 5638 5639 5641 5641 5642 5642 5642 5642 5641 5640 5638 5636 5634 5631 5628 5623 5618 5612 5607 5601 5595 5590 5584
5550 5559 5567 5573 5580 5587 5593 5599 5604 5608 5612 5616 5619 5622 5624 5625 5626 5628 5630 5631 5633 5634 5635 5635 5636 5636 5636 5636 5635 5634 5633 5631 5628 5625 5622 5618 5613 5608 5602 5596 5591 5585 5579
5544 5553 5561 5568 5575 5581 5587 5592 5598 5602 5606 5610 5613 5616 5618 5620 5621 5623 5625 5626 5627 5628 5629 5630 5630 5630 5630 5630 5629 5628 5627 5625 5622 5619 5616 5612 5608 5603 5597 5591 5585 5580 5574
Wind_Speed
45 46 46 47 47 47 48 48 49 50 50 49 45 42 41 40 39 38 37 35 33 32 32 31 30 28 27 27 28 28 28 28 29 29 30 30 31 32 32 32 33 32 32
43 43 43 42 42 42 42 42 41 40 39 39 37 36 35 35 34 33 32 31 32 31 31 30 28 26 26 26 27 28 29 30 30 31 32 32 33 34 35 35 35 35 35
39 39 38 37 36 35 34 32 29 28 28 28 28 29 29 30 31 31 29 29 29 30 29 27 25 25 25 25 26 27 29 30 31 32 33 34 35 36 37 38 38 37 37
35 34 32 32 31 29 28 25 22 21 20 21 22 22 23 25 27 27 27 27 28 27 25 23 22 22 24 25 26 27 28 30 31 32 33 34 35 37 38 38 38 38 38
31 30 29 28 26 24 22 19 18 15 13 13 16 18 21 23 23 24 24 24 23 21 21 20 20 21 22 23 25 27 28 29 31 32 33 35 36 37 38 38 38 38 38
29 27 26 25 22 20 17 14 12 10 8 5 6 10 13 15 16 17 18 18 18 18 18 18 20 21 22 23 24 25 27 28 29 31 32 33 35 36 37 37 36 37 37
28 25 23 22 19 17 15 12 10 8 6 4 4 6 8 10 11 13 14 15 16 17 17 18 19 20 21 22 22 24 25 26 27 28 29 31 33 34 34 35 35 36 36
27 24 21 19 17 16 14 11 10 8 7 6 6 7 8 9 10 11 12 13 14 15 16 16 17 17 17 18 19 20 22 23 24 26 27 29 30 32 32 33 33 34 34
26 23 20 18 17 15 13 12 11 10 9 8 8 8 9 9 10 10 10 10 11 11 11 12 13 13 14 15 16 18 19 21 23 25 27 29 30 31 32 33 33 33 33
26 23 19 17 16 15 13 12 11 11 11 10 9 9 8 7 7 7 8 8 8 7 8 9 10 11 12 14 15 17 20 22 24 26 27 29 30 31 32 32 33 33 32
25 22 19 17 15 15 13 12 11 11 10 10 9 7 6 5 5 5 5 4 5 6 7 8 9 10 12 14 16 18 20 22 24 26 27 29 29 30 30 31 31 30 30
25 23 20 18 16 14 12 11 11 10 9 8 7 5 4 4 4 4 4 4 5 6 7 8 10 12 14 15 16 18 20 22 24 26 27 28 28 28 28 28 28 28 28
27 24 21 19 17 15 13 12 11 10 9 8 6 5 4 4 4 4 5 6 6 8 9 10 11 12 13 14 16 18 20 22 24 26 28 28 28 28 27 26 26 26 25
29 27 24 21 18 17 15 13 12 10 9 8 7 6 6 6 6 6 7 8 9 10 11 11 12 12 13 14 16 18 20 23 25 26 27 28 27 27 26 25 24 23 23
32 30 27 24 21 19 17 15 13 11 10 9 8 8 8 8 9 9 9 10 11 12 12 12 12 12 12 13 15 17 19 22 23 25 26 26 26 25 24 23 23 22 22
34 33 30 27 24 22 20 17 15 14 13 12 11 11 11 12 12 12 13 13 13 13 13 13 12 11 11 12 14 16 18 20 22 24 25 25 25 24 24 22 22 21 21
35 35 34 30 27 25 23 20 18 16 15 14 14 14 14 14 15 15 15 15 15 14 14 12 11 10 11 12 13 15 18 20 22 23 25 26 25 25 24 22 22 22 21
36 37 36 33 30 27 25 22 20 19 17 17 16 16 16 17 17 17 17 17 16 15 14 12 11 11 10 11 12 15 17 20 22 24 26 27 27 27 25 24 23 22 22
37 38 38 36 33 30 27 25 22 20 19 18 17 17 17 18 18 18 18 17 16 15 14 13 12 11 11 11 12 14 17 20 23 25 27 28 29 29 28 27 25 24 23
38 38 39 39 36 33 30 28 25 23 21 20 19 19 18 18 19 19 19 18 17 16 16 15 14 13 12 12 12 14 17 20 23 25 27 29 30 30 30 29 28 26 25
38 38 39 40 39 36 33 30 27 25 23 21 20 20 20 19 19 19 19 18 18 17 17 16 16 15 14 13 14 15 17 19 22 25 27 29 31 32 32 32 31 29 28
38 38 38 40 39 37 34 32 30 27 25 24 21 20 20 19 18 19 19 19 19 18 17 17 17 16 15 15 15 16 17 19 22 25 28 30 32 33 34 34 34 32 30
39 36 35 37 38 37 35 33 31 28 26 25 22 19 19 19 18 18 19 19 19 19 18 18 18 18 17 17 17 18 19 20 22 25 28 31 33 34 35 36 36 35 32
40 35 33 34 34 34 34 32 30 28 26 23 20 18 18 18 17 17 18 18 19 19 19 19 19 19 19 19 19 19 20 22 24 26 28 30 33 35 37 38 38 37 35
39 34 31 30 30 31 32 31 29 26 24 21 18 16 16 16 15 15 16 16 17 18 18 18 19 20 20 20 20 20 21 23 25 27 28 30 32 35 37 39 39 38 36
40 35 31 28 27 28 28 28 26 24 21 19 16 14 13 13 13 13 13 14 15 16 17 17 18 19 20 20 20 20 20 22 24 27 29 31 33 35 37 39 40 39 38
Wind_Direction
282 285 287 289 290 290 290 288 287 285 282 277 270 265 264 260 256 255 257 257 259 258 259 256 253 253 254 256 259 260 262 264 267 270 271 273 275 277 279 280 282 285 286
283 286 289 292 293 294 294 292 290 287 281 274 265 262 259 254 250 249 251 253 255 254 254 253 252 254 255 257 259 261 263 266 268 271 273 274 276 277 278 280 281 283 284
286 289 292 295 297 297 297 296 296 292 282 272 261 257 253 248 245 246 245 247 248 251 251 252 253 256 258 260 263 264 267 269 271 273 274 276 277 278 279 280 281 282 283
290 292 294 298 300 300 301 300 303 301 288 271 260 253 248 246 241 239 239 241 245 247 249 252 256 259 261 263 266 269 272 273 274 275 276 278 278 279 280 280 280 281 281
293 293 295 299 300 302 306 308 313 312 306 281 259 248 242 234 233 234 236 240 242 247 250 253 258 263 267 269 272 274 276 277 278 278 279 280 281 281 281 280 280 280 280
293 293 295 298 300 302 309 315 322 326 324 306 253 230 228 229 232 235 238 242 247 252 254 257 261 264 267 270 273 276 278 281 281 282 282 283 283 283 282 282 282 281 281
291 291 292 294 295 297 302 308 313 317 311 297 263 241 232 232 234 238 242 247 250 253 256 259 262 265 269 273 277 280 283 286 288 289 289 289 289 288 286 284 283 282 281
289 288 288 288 288 290 294 296 300 301 295 286 276 262 256 252 247 248 251 254 257 258 260 263 267 271 275 280 285 288 292 294 296 296 295 294 292 291 289 287 285 283 281
284 283 282 281 279 281 283 285 284 285 284 279 275 273 268 264 260 257 255 257 261 262 264 269 274 279 285 290 293 296 298 300 301 301 299 298 296 293 291 289 286 283 281
278 277 275 274 273 273 274 277 278 278 278 273 272 273 268 262 260 258 258 262 266 269 275 281 285 290 295 299 301 303 304 304 304 302 300 298 297 295 293 291 288 284 281
271 269 266 265 267 267 267 269 271 272 272 269 270 268 257 254 253 251 254 262 275 283 290 293 297 302 304 305 306 307 307 307 306 305 303 301 299 296 293 291 289 286 282
263 262 260 258 259 260 258 260 261 259 259 262 262 263 259 257 260 261 270 281 288 295 297 299 303 305 306 307 308 309 310 310 311 310 309 307 303 300 296 293 290 287 284
256 253 253 253 255 254 253 253 250 249 250 249 254 258 255 257 262 269 282 289 294 297 297 299 302 305 307 309 313 314 316 318 319 319 317 314 310 306 301 298 294 291 287
249 246 247 247 249 251 250 248 245 243 242 244 250 251 250 254 260 268 276 283 290 293 296 299 302 304 307 312 318 322 325 327 328 328 326 322 318 313 308 303 300 297 293
244 241 242 243 244 246 245 244 243 241 242 246 250 252 255 257 261 266 272 279 285 288 290 293 297 301 307 315 323 328 332 334 335 335 332 330 326 321 315 310 305 301 298
240 238 238 239 240 241 242 241 241 241 242 247 250 254 259 262 264 266 271 276 279 281 283 285 288 293 303 316 326 333 337 340 341 341 340 338 335 330 324 318 312 307 303
238 235 234 235 236 238 238 238 239 241 245 249 254 257 261 264 267 269 272 275 276 276 276 278 279 288 303 318 330 338 344 347 348 348 347 346 343 338 333 326 319 313 307
236 233 231 231 232 234 236 237 239 242 247 252 257 261 264 267 268 269 271 272 271 271 270 270 274 283 298 316 330 339 346 349 351 352 351 350 348 344 339 333 327 320 313
233 231 229 228 229 232 235 237 239 242 247 252 257 261 264 266 267 268 267 267 267 266 265 265 270 279 293 310 326 337 344 348 350 351 351 351 350 347 344 339 334 328 321
230 229 228 226 227 229 233 236 239 243 247 250 255 260 262 264 264 264 264 263 262 262 262 263 267 275 286 301 317 329 338 343 346 349 350 351 350 349 347 344 340 335 328
227 228 227 225 226 228 232 235 238 241 245 250 254 258 260 261 262 262 261 259 259 259 261 261 265 272 282 295 308 321 330 337 342 345 347 349 349 349 349 347 344 339 334
223 226 226 224 225 228 231 234 236 241 246 250 253 254 257 259 260 260 258 256 255 257 260 261 264 270 280 290 300 310 320 328 334 338 342 345 347 347 348 347 346 342 338
218 223 224 223 224 227 229 231 235 240 244 248 248 247 252 255 256 256 256 255 254 256 259 261 265 271 279 287 295 304 312 320 327 332 337 340 342 344 346 347 346 343 340
213 219 220 221 224 224 225 228 232 237 239 242 240 239 246 252 253 253 253 254 255 256 259 263 268 273 279 285 291 298 304 312 319 325 330 334 337 340 342 343 343 342 340
208 214 217 219 220 221 221 224 227 228 229 230 230 230 237 247 250 251 253 255 256 258 261 265 270 275 279 284 289 293 299 306 313 320 325 329 332 335 337 339 340 340 338
205 209 212 214 215 216 216 216 217 217 218 219 221 223 229 237 246 251 256 258 259 261 265 268 272 275 277 281 287 290 295 302 308 315 321 325 328 331 334 336 336 337 336